Tracking 30995 objects as of 7-Jul-2025
HD Live streaming from Space Station
objects crossing your sky now

STARLINK-30404

Track STARLINK-30404 now!
10-day predictions
STARLINK-30404 is classified as:


NORAD ID: 57853
Int'l Code: 2023-141P
Perigee: 481.6 km
Apogee: 483.0 km
Inclination: 53.2 °
Period: 94.1 minutes
Semi major axis: 6853 km
RCS: Unknown
Launch date: September 12, 2023
Source: United States (US)
Launch site: AIR FORCE WESTERN TEST RANGE (AFWTR)
Your satellite tracking list
COSMOS 1375 DEB
Track 1 satellite(s)




NASA's NSSDC Master Catalog

Two Line Element Set (TLE):
1 57853U 23141P   25187.58580423  .00003251  00000-0  12179-3 0  9991
2 57853  53.1613 346.8818 0001033 104.8859 255.2256 15.30213396102653
Source of the keplerian elements: AFSPC